[[{"header":{"parameterUnit":"m.s-1","parameterCategory":1,"la1":30.2992,"la2":30.254,"lo1":-89.0895,"lo2":-89.0443,"dy":0.0025,"dx":0.0025,"nx":19,"ny":19,"refTime":"2026-04-10T03:00:00:Z","depth":0,"parameterNumber":2,"parameterNumberName":"U-component_of_WINDS"},"data":[0,0,0,-3.7944,-3.7944,-3.7953,-3.7953,-3.7994,-3.7994,0,0,0,0,0,0,0,0,0,0,0,-3.7956,-3.7956,-3.7944,-3.7945,-3.7953,-3.7953,-3.7994,-3.7994,0,0,0,0,0,0,0,0,0,0,0,-3.7955,-3.7956,-3.7957,-3.7945,-3.7953,-3.7953,-3.7993,-3.7977,0,0,0,0,0,0,0,0,0,0,-3.7964,-3.7987,-3.7956,-3.7957,-3.7945,-3.7953,-3.7953,-3.7976,-3.7978,-3.8002,0,-3.8023,0,-3.801,-3.7999,-3.7999,0,0,0,-3.7934,-3.7986,-3.7975,-3.7957,-3.7945,-3.7953,-3.7946,-3.7977,-3.798,-3.8005,-3.8023,-3.8024,-3.801,-3.7999,-3.7999,-3.8166,-3.8167,0,0,-3.7934,-3.7965,-3.7974,-3.7978,-3.7975,-3.7946,-3.7947,-3.7978,-3.8001,-3.8023,-3.8025,-3.8011,-3.8,-3.8,-3.8164,-3.8166,0,0,0,-3.7939,-3.7965,-3.7953,-3.7977,-3.7976,-3.7947,-3.7947,-3.8,-3.7993,-3.8025,-3.8011,-3.8,-3.8001,-3.8163,-3.8165,-3.8259,0,0,0,-3.7939,-3.7968,-3.7954,-3.7973,-3.7976,-3.7987,-3.7969,-3.7991,-3.7994,-3.8011,-3.8,-3.8001,-3.8161,-3.8164,-3.8253,-3.8299,0,0,0,-3.795,-3.7969,-3.7975,-3.7975,-3.7979,-3.7986,-3.7981,-3.7991,-3.7986,-3.7999,-3.8002,-3.816,-3.8164,-3.8248,-3.829,-3.8355,0,0,0,-3.7972,-3.8056,-3.7977,-3.8067,-3.7979,-3.8043,-3.798,-3.8026,-3.8048,-3.8,-3.8162,-3.8165,-3.8247,-3.8285,-3.835,-3.8417,-3.8446,0,0,-3.8096,-3.8072,-3.8123,-3.8053,-3.8139,-3.8039,-3.814,-3.813,-3.8103,-3.8148,-3.8151,-3.8255,-3.829,-3.8354,-3.86,-3.8624,0,0,0,-3.8173,-3.821,-3.8226,-3.8249,-3.8244,-3.8247,-3.8218,-3.8217,-3.8253,-3.8131,-3.8294,-3.8313,-3.835,-3.8381,-3.8401,-3.8433,-3.818,-3.8179,-3.8179,-3.8392,-3.8355,-3.8438,-3.8404,-3.8428,-3.8402,-3.8419,-3.8413,-3.8365,-3.8406,-3.8418,-3.8572,-3.8609,-3.8624,-3.8658,-3.8449,-3.8449,-3.8449,-3.845,-3.8572,-3.8621,-3.8562,-3.8622,-3.8585,-3.8635,-3.8617,-3.8584,-3.8629,-3.8557,-3.8588,-3.8515,-3.8652,-3.868,-3.8456,-3.8455,-3.8454,-3.8454,-3.8453,-3.8713,-3.8731,-3.8727,-3.8762,-3.8794,-3.8758,-3.8806,-3.8769,-3.8735,-3.8765,-3.8779,-3.8777,-3.8774,-3.8774,-3.8774,-3.8775,-3.8775,-3.8776,-3.8776,-3.8861,-3.8855,-3.8898,-3.8907,-3.8921,-3.8935,-3.8915,-3.8929,-3.8935,-3.8905,-3.8905,-3.8859,-3.8671,-3.8626,-3.8784,-3.8783,-3.8782,-3.8781,-3.878,-3.9061,-3.9011,-3.9079,-3.9093,-3.9104,-3.9143,-3.9096,-3.913,-3.9136,-3.9163,-3.9112,-3.8977,-3.8951,-3.8934,-3.8897,-3.9116,-3.9116,-3.9116,-3.9116,-3.9181,-3.9165,-3.923,-3.9257,-3.9279,-3.9247,-3.9333,-3.9322,-3.9302,-3.9306,-3.9269,-3.9216,-3.9201,-3.9184,-3.9162,-3.9127,-3.9399,-3.94,-3.94,-3.9305,-3.929,-3.9366,-3.9346,-3.9355,-3.9364,-3.9445,-3.9483,-3.9451,-3.9411,-3.931,-3.9298,-3.9212,-3.9185,-3.9142,-3.9108,-3.9043,0,0]},{"header":{"parameterUnit":"m.s-1","parameterCategory":1,"la1":30.2992,"la2":30.254,"lo1":-89.0895,"lo2":-89.0443,"dy":0.0025,"dx":0.0025,"nx":19,"ny":19,"refTime":"2026-04-10T03:00:00:Z","depth":0,"parameterNumber":3,"parameterNumberName":"V-component_of_WINDS"},"data":[0,0,0,1.8761,1.876,1.8722,1.8722,1.866,1.8659,0,0,0,0,0,0,0,0,0,0,0,1.8766,1.8766,1.8761,1.876,1.8722,1.8722,1.866,1.8659,0,0,0,0,0,0,0,0,0,0,0,1.8767,1.8766,1.8765,1.876,1.8722,1.8722,1.866,1.8693,0,0,0,0,0,0,0,0,0,0,1.8732,1.8732,1.8766,1.8765,1.876,1.8722,1.8722,1.8695,1.8691,1.8672,0,1.8656,0,1.8657,1.8655,1.8654,0,0,0,1.8764,1.8735,1.873,1.8765,1.8759,1.8722,1.874,1.8693,1.8689,1.8667,1.8655,1.8653,1.8656,1.8654,1.8654,1.8539,1.8538,0,0,1.8766,1.8756,1.8733,1.8727,1.8735,1.8741,1.8739,1.869,1.8676,1.8655,1.8652,1.8655,1.8654,1.8653,1.854,1.8539,0,0,0,1.8769,1.8757,1.8754,1.873,1.8724,1.874,1.8737,1.8678,1.8678,1.8652,1.8654,1.8653,1.8652,1.8541,1.8539,1.8494,0,0,0,1.8771,1.8759,1.8755,1.8748,1.8725,1.8701,1.8726,1.8681,1.8676,1.8655,1.8653,1.8652,1.8541,1.854,1.8497,1.8472,0,0,0,1.8771,1.8759,1.8752,1.8747,1.8731,1.8702,1.8699,1.8681,1.8678,1.8654,1.8652,1.8542,1.854,1.8499,1.8476,1.8437,0,0,0,1.8767,1.8711,1.8751,1.869,1.8731,1.8676,1.87,1.8658,1.8633,1.8653,1.8541,1.854,1.85,1.8479,1.844,1.84,1.8384,0,0,1.869,1.8701,1.8666,1.8701,1.8636,1.8682,1.861,1.8595,1.8601,1.8559,1.8556,1.8496,1.8477,1.8438,1.8301,1.8287,0,0,0,1.8638,1.8612,1.8597,1.8574,1.8564,1.8552,1.8551,1.8546,1.8511,1.8578,1.8473,1.8462,1.844,1.8421,1.8409,1.8389,1.8532,1.8532,1.8532,1.8511,1.8525,1.8467,1.8476,1.8454,1.8454,1.8436,1.8429,1.8448,1.8423,1.8408,1.8324,1.8302,1.8293,1.8272,1.8392,1.8392,1.8392,1.8392,1.8397,1.8361,1.8392,1.8345,1.836,1.832,1.8319,1.8334,1.8298,1.8336,1.8316,1.8352,1.8279,1.8261,1.8388,1.8389,1.8389,1.839,1.839,1.8313,1.8298,1.8295,1.8264,1.8238,1.825,1.8215,1.823,1.8243,1.8224,1.8209,1.821,1.821,1.8217,1.8217,1.8217,1.8216,1.8216,1.8216,1.8224,1.8223,1.8192,1.8179,1.8166,1.8151,1.8153,1.8141,1.813,1.8143,1.8143,1.8162,1.8271,1.8295,1.8211,1.8212,1.8213,1.8213,1.8213,1.8096,1.8128,1.808,1.8068,1.8054,1.8026,1.8048,1.8021,1.8013,1.7995,1.8021,1.81,1.811,1.8119,1.8139,1.802,1.802,1.802,1.802,1.8021,1.8031,1.7985,1.7965,1.7947,1.7962,1.7905,1.7907,1.7913,1.7909,1.7929,1.7959,1.7968,1.7973,1.7985,1.8004,1.7853,1.7853,1.7853,1.7942,1.795,1.79,1.7909,1.7899,1.789,1.7837,1.781,1.7825,1.7846,1.7905,1.7912,1.796,1.7976,1.7993,1.8012,1.8047,0,0]}]]